• In India
  • List of Countries
  • For 7 days
  • Water Temperature
  • Satellite Maps
  • Weather Map
  • Weather Widgets
  • user-avatar
    Login

    Hourly Weather Kaprun

    Today, 16 October, Tuesday

    Time Temperature Precipitation Wind Pressure Humidity
    00:00 +1°C° 0 mm 2 mps 598 mmHg 90%
    01:00 +1°C° 0 mm 2 mps 597 mmHg 89%
    02:00 +1°C° 0 mm 2 mps 597 mmHg 88%
    03:00 +1°C° 0 mm 2 mps 597 mmHg 88%
    04:00 -1°C° 0 mm 2 mps 597 mmHg 87%
    05:00 +1°C° 0 mm 1 mps 598 mmHg 86%
    06:00 +2°C° 0 mm 1 mps 598 mmHg 85%
    07:00 +2°C° 0 mm 1 mps 598 mmHg 84%
    08:00 +5°C° 0 mm 1 mps 599 mmHg 74%
    09:00 +7°C° 0 mm 1 mps 600 mmHg 63%
    10:00 +10°C° 0 mm 1 mps 602 mmHg 53%
    11:00 +11°C° 0 mm 1 mps 602 mmHg 51%
    12:00 +11°C° 0 mm 1 mps 602 mmHg 48%
    13:00 +12°C° 0 mm 1 mps 602 mmHg 46%
    14:00 +11°C° 0 mm 1 mps 602 mmHg 51%
    15:00 +11°C° 0 mm 1 mps 601 mmHg 57%
    16:00 +9°C° 0 mm 2 mps 601 mmHg 62%
    17:00 +8°C° 0 mm 1 mps 600 mmHg 71%
    18:00 +6°C° 0 mm 1 mps 599 mmHg 80%
    19:00 +4°C° 0 mm 1 mps 599 mmHg 90%
    20:00 +4°C° 0 mm 1 mps 599 mmHg 90%
    21:00 +3°C° 0 mm 1 mps 599 mmHg 90%
    22:00 +3°C° 0 mm 1 mps 599 mmHg 90%
    23:00 +3°C° 0 mm 1 mps 598 mmHg 89%

    Tomorrow, 17 October, Wednesday

    Time Temperature Precipitation Wind Pressure Humidity
    00:00 +3°C° 0 mm 1 mps 598 mmHg 89%
    01:00 +3°C° 0 mm 1 mps 598 mmHg 89%
    02:00 +2°C° 0 mm 1 mps 598 mmHg 89%
    03:00 +2°C° 0 mm 1 mps 598 mmHg 88%
    04:00 +2°C° 0 mm 1 mps 598 mmHg 88%
    05:00 +2°C° 0 mm 1 mps 598 mmHg 87%
    06:00 +2°C° 0 mm 1 mps 598 mmHg 86%
    07:00 +2°C° 0 mm 1 mps 598 mmHg 85%
    08:00 +5°C° 0 mm 1 mps 599 mmHg 76%
    09:00 +8°C° 0 mm 1 mps 600 mmHg 66%
    10:00 +9°C° 0 mm 0 mps 601 mmHg 57%
    11:00 +11°C° 0 mm 1 mps 601 mmHg 55%
    12:00 +11°C° 0 mm 1 mps 601 mmHg 53%
    13:00 +12°C° 0 mm 1 mps 601 mmHg 51%
    14:00 +11°C° 0 mm 1 mps 601 mmHg 57%
    15:00 +11°C° 0 mm 1 mps 600 mmHg 62%
    16:00 +10°C° 0 mm 1 mps 600 mmHg 68%
    17:00 +8°C° 0 mm 1 mps 599 mmHg 77%
    18:00 +6°C° 0 mm 1 mps 598 mmHg 85%
    19:00 +3°C° 0 mm 0 mps 598 mmHg 94%
    20:00 +4°C° 0 mm 1 mps 598 mmHg 94%
    21:00 +3°C° 0 mm 1 mps 598 mmHg 93%
    22:00 +3°C° 0 mm 1 mps 598 mmHg 93%
    23:00 +3°C° 0 mm 1 mps 598 mmHg 92%

    Day after tomorrow, 18 October, Thursday

    Time Temperature Precipitation Wind Pressure Humidity
    00:00 +3°C° 0 mm 1 mps 597 mmHg 92%
    01:00 +3°C° 0 mm 1 mps 597 mmHg 91%
    02:00 +3°C° 0 mm 1 mps 597 mmHg 91%
    03:00 +2°C° 0 mm 1 mps 597 mmHg 90%
    04:00 +2°C° 0 mm 1 mps 597 mmHg 90%
    05:00 +2°C° 0 mm 1 mps 597 mmHg 90%
    06:00 +2°C° 0 mm 1 mps 597 mmHg 89%
    07:00 +2°C° 0 mm 1 mps 597 mmHg 89%
    08:00 +5°C° 0 mm 1 mps 598 mmHg 80%
    09:00 +8°C° 0 mm 1 mps 600 mmHg 72%
    10:00 +9°C° 0 mm 0 mps 601 mmHg 63%
    11:00 +11°C° 0 mm 1 mps 601 mmHg 60%
    12:00 +11°C° 0 mm 1 mps 601 mmHg 57%
    13:00 +12°C° 0 mm 1 mps 601 mmHg 54%
    14:00 +11°C° 0 mm 1 mps 601 mmHg 60%
    15:00 +11°C° 0 mm 1 mps 600 mmHg 66%
    16:00 +10°C° 0 mm 1 mps 600 mmHg 72%
    17:00 +8°C° 0 mm 1 mps 599 mmHg 79%
    18:00 +6°C° 0 mm 1 mps 599 mmHg 87%
    19:00 +3°C° 0 mm 0 mps 598 mmHg 95%
    20:00 +3°C° 0 mm 0 mps 598 mmHg 95%
    21:00 +3°C° 0 mm 0 mps 599 mmHg 95%
    22:00 +3°C° 0 mm 0 mps 599 mmHg 96%
    23:00 +3°C° 0 mm 1 mps 599 mmHg 95%

    19 October, Friday

    Time Temperature Precipitation Wind Pressure Humidity
    00:00 +3°C° 0 mm 1 mps 599 mmHg 95%
    01:00 +3°C° 0 mm 1 mps 598 mmHg 95%
    02:00 +3°C° 0 mm 1 mps 598 mmHg 95%
    03:00 +3°C° 0 mm 1 mps 598 mmHg 95%
    04:00 +2°C° 0 mm 1 mps 598 mmHg 94%
    05:00 +2°C° 0 mm 1 mps 598 mmHg 94%
    06:00 +2°C° 0 mm 1 mps 598 mmHg 94%
    07:00 +2°C° 0 mm 1 mps 598 mmHg 93%
    08:00 +5°C° 0 mm 1 mps 600 mmHg 84%
    09:00 +6°C° 0 mm 0 mps 601 mmHg 76%
    10:00 +9°C° 0 mm 0 mps 602 mmHg 67%
    11:00 +11°C° 0 mm 1 mps 602 mmHg 63%
    12:00 +11°C° 0 mm 1 mps 602 mmHg 59%
    13:00 +12°C° 0 mm 1 mps 603 mmHg 55%
    14:00 +11°C° 0 mm 1 mps 602 mmHg 60%
    15:00 +11°C° 0 mm 1 mps 602 mmHg 66%
    16:00 +10°C° 0 mm 1 mps 602 mmHg 71%
    17:00 +8°C° 0 mm 1 mps 601 mmHg 79%
    18:00 +5°C° 0 mm 0 mps 600 mmHg 87%
    19:00 +3°C° 0 mm 0 mps 600 mmHg 95%
    20:00 +3°C° 0 mm 0 mps 600 mmHg 95%
    21:00 +3°C° 0 mm 0 mps 600 mmHg 95%
    22:00 +2°C° 0 mm 0 mps 600 mmHg 95%
    23:00 +2°C° 0 mm 0 mps 600 mmHg 95%

    20 October, Saturday

    Time Temperature Precipitation Wind Pressure Humidity
    00:00 +2°C° 0 mm 0 mps 600 mmHg 95%
    01:00 +2°C° 0 mm 0 mps 600 mmHg 95%
    02:00 +2°C° 0 mm 1 mps 600 mmHg 95%
    03:00 +2°C° 0 mm 1 mps 599 mmHg 95%
    04:00 +2°C° 0 mm 1 mps 599 mmHg 95%
    05:00 +2°C° 0 mm 1 mps 600 mmHg 95%
    06:00 +2°C° 0 mm 1 mps 600 mmHg 95%
    07:00 +2°C° 0 mm 1 mps 600 mmHg 96%
    08:00 +4°C° 0 mm 1 mps 601 mmHg 88%
    09:00 +6°C° 0 mm 1 mps 602 mmHg 81%
    10:00 +8°C° 0 mm 1 mps 603 mmHg 74%
    11:00 +9°C° 0 mm 1 mps 603 mmHg 68%
    12:00 +10°C° 0 mm 1 mps 603 mmHg 62%
    13:00 +11°C° 0 mm 1 mps 604 mmHg 56%
    14:00 +9°C° 0.1 mm 2 mps 603 mmHg 62%
    15:00 +8°C° 0.1 mm 2 mps 603 mmHg 69%
    16:00 +7°C° 0.1 mm 2 mps 602 mmHg 75%
    17:00 +6°C° 0.1 mm 2 mps 602 mmHg 82%
    18:00 +4°C° 0.1 mm 2 mps 601 mmHg 88%
    19:00 +3°C° 0.1 mm 2 mps 601 mmHg 95%
    20:00 +3°C° 0.4 mm 2 mps 601 mmHg 95%
    21:00 +2°C° 0.4 mm 2 mps 601 mmHg 95%
    22:00 +2°C° 0.4 mm 2 mps 601 mmHg 94%
    23:00 +2°C° 0.6 mm 2 mps 601 mmHg 95%

    21 October, Sunday

    Time Temperature Precipitation Wind Pressure Humidity
    00:00 +2°C° 0.6 mm 2 mps 601 mmHg 95%
    01:00 +1°C° 0.6 mm 2 mps 601 mmHg 96%
    02:00 +1°C° 0.2 mm 2 mps 600 mmHg 95%
    03:00 +1°C° 0.2 mm 2 mps 600 mmHg 95%
    04:00 -1°C° 0.2 mm 2 mps 600 mmHg 94%
    05:00 -1°C° 0.1 mm 2 mps 600 mmHg 94%
    06:00 -1°C° 0.1 mm 2 mps 600 mmHg 94%
    07:00 -2°C° 0.1 mm 2 mps 600 mmHg 93%
    08:00 -1°C° 0 mm 3 mps 600 mmHg 87%
    09:00 -1°C° 0 mm 3 mps 600 mmHg 81%
    10:00 0°C° 0 mm 3 mps 601 mmHg 74%
    11:00 +1°C° 0 mm 3 mps 601 mmHg 67%
    12:00 +1°C° 0 mm 3 mps 601 mmHg 60%
    13:00 +2°C° 0 mm 3 mps 601 mmHg 53%
    14:00 +1°C° 0 mm 3 mps 600 mmHg 56%
    15:00 +1°C° 0 mm 3 mps 600 mmHg 59%
    16:00 0°C° 0 mm 3 mps 600 mmHg 62%
    17:00 -2°C° 0 mm 2 mps 599 mmHg 71%
    18:00 -3°C° 0 mm 2 mps 599 mmHg 81%
    19:00 -5°C° 0 mm 2 mps 599 mmHg 90%
    20:00 -5°C° 0 mm 2 mps 599 mmHg 90%
    21:00 -5°C° 0 mm 2 mps 599 mmHg 90%
    22:00 -5°C° 0 mm 2 mps 599 mmHg 90%
    23:00 -6°C° 0 mm 2 mps 599 mmHg 88%
    Show more